カタログに戻る

DELTA 2 R/B

運用中LEO
NORAD 25876·ROCKET BODY·🇺🇸 United States

打ち上げ Jul 25, 1999 から Cape Canaveral Space Force Station

Loading…

次のパス (今後24時間)

TLE

最新Source: Space-Track

元期: Sep 14, 2026, 08:25 UTC

1 25876U 99041E   26257.35111792  .00000475  00000-0  11487-3 0  9992
2 25876  51.7616 267.4747 0500543 185.2799 174.2732 14.12247881389689

AllMySatでDELTA 2 R/Bをリアルタイム追跡

Download on the App Store